Simultaneous Nadir Overpasses (SNOs) Predictions

Prediction of SNOs between GOES-16 and METOP-C Satellite Orbit:

Table of predicted SNOs for the next 14.0 days since TLE Epoch: 8/9/2019
Index Date Time (GOES-16) GOES-16 Lat,Lon METOP-C Lat,Lon Distance(km) Time Diff (sec)
1 08/10/2019 14:18:29 0.01, -75.18 -0.63, -72.33 324.11 80
2 08/12/2019 02:40:10 -0.02, -75.16 -0.40, -76.93 200.95 80
3 08/13/2019 02:16:50 -0.01, -75.16 0.70, -71.93 368.13 80
4 08/14/2019 14:38:21 0.02, -75.18 0.33, -76.49 149.84 80
5 08/15/2019 14:15:03 0.01, -75.18 -0.83, -71.51 419.74 80
6 08/17/2019 02:36:43 -0.02, -75.18 -0.21, -76.10 104.05 80
7 08/18/2019 02:13:24 -0.01, -75.19 0.89, -71.10 465.85 80
8 08/19/2019 14:34:55 0.02, -75.22 0.13, -75.66 50.76 80
9 08/22/2019 02:33:17 -0.02, -75.24 -0.02, -75.27 3.24 80




NCC Satellite Simultaneous Nadir Overpasses (SNOs) Prediction Service
